Location: Newark
(46.0000°N, 8.8667°E)
Time: 20:35:59
(UTC+00:00)

ISS - Visible Passes

Search period start: 27 September 2020 00:00
Search period end: 07 October 2020 00:00
Orbit: 419 x 421 km, 51.6° (Epoch: 28 September)

Date Brightness Start Highest point End Pass type
(mag) Time Alt. Az. Time Alt. Az. Time Alt. Az.
27 Sep -2.6 19:01:18 10° WNW 19:04:24 33° N 19:04:38 32° NNE visible
28 Sep -2.4 18:14:00 10° WNW 18:17:02 30° N 18:19:09 16° ENE visible
28 Sep -1.1 19:50:54 10° WNW 19:52:08 20° NW 19:52:08 20° NW visible
29 Sep -3.0 19:03:41 10° WNW 19:06:40 46° N 19:06:40 46° N visible
30 Sep -2.9 18:16:26 10° WNW 18:19:38 38° NNE 18:21:13 23° ENE visible
30 Sep -0.8 19:53:15 10° WNW 19:54:11 17° WNW 19:54:11 17° WNW visible
01 Oct -2.6 17:29:09 10° WNW 17:32:16 33° N 17:35:22 10° ENE visible
01 Oct -3.2 19:05:58 10° WNW 19:08:46 58° WNW 19:08:46 58° WNW visible
02 Oct -3.7 18:18:42 10° WNW 18:22:04 66° NNE 18:23:24 33° E visible
02 Oct -0.5 19:55:57 10° W 19:56:22 12° W 19:56:22 12° W visible
03 Oct -3.3 17:31:27 10° WNW 17:34:44 49° NNE 17:38:02 10° E visible
03 Oct -2.3 19:08:23 10° WNW 19:11:03 33° WSW 19:11:03 33° WSW visible
04 Oct -3.3 18:20:59 10° WNW 18:24:18 55° SW 18:25:48 28° SSE visible
05 Oct -3.7 17:33:39 10° WNW 17:37:02 84° SSW 17:40:24 10° ESE visible
05 Oct -1.1 19:11:31 10° W 19:13:24 14° SW 19:13:38 14° SW visible
06 Oct -1.6 18:23:36 10° W 18:26:16 22° SW 18:28:36 12° S visible
